When you browse on this site, cookies collect data to enhance your experience and personalize the content and advertising you see.
Visit our Privacy Policy to learn more. By continuing to use the site, you agree to this use of cookies and data.
EN

Hourly Weather Cambridge

Today, 7 July, Tuesday

Time Temperature Precipitation Wind Pressure Humidity
00:00 +9°C° 0 mm 3 mps 765 mmHg 88%
01:00 +9°C° 0 mm 3 mps 764 mmHg 88%
02:00 +9°C° 0 mm 2 mps 764 mmHg 88%
03:00 +9°C° 0 mm 2 mps 764 mmHg 88%
04:00 +10°C° 0 mm 2 mps 764 mmHg 86%
05:00 +11°C° 0 mm 3 mps 764 mmHg 84%
06:00 +11°C° 0 mm 3 mps 763 mmHg 82%
07:00 +13°C° 0 mm 3 mps 763 mmHg 78%
08:00 +14°C° 0 mm 4 mps 763 mmHg 74%
09:00 +15°C° 0 mm 4 mps 763 mmHg 71%
10:00 +15°C° 0.2 mm 4 mps 763 mmHg 74%
11:00 +15°C° 0.2 mm 4 mps 763 mmHg 76%
12:00 +15°C° 0.2 mm 4 mps 763 mmHg 79%
13:00 +16°C° 0.1 mm 3 mps 762 mmHg 82%
14:00 +14°C° 0.1 mm 3 mps 762 mmHg 85%
15:00 +14°C° 0.1 mm 2 mps 762 mmHg 88%
16:00 +14°C° 0.5 mm 2 mps 762 mmHg 90%
17:00 +13°C° 0.5 mm 2 mps 761 mmHg 93%
18:00 +13°C° 0.5 mm 1 mps 761 mmHg 95%
19:00 +13°C° 1 mm 2 mps 760 mmHg 95%
20:00 +12°C° 1 mm 3 mps 760 mmHg 96%
21:00 +12°C° 1 mm 3 mps 760 mmHg 96%
22:00 +13°C° 2 mm 3 mps 760 mmHg 97%
23:00 +13°C° 2 mm 3 mps 759 mmHg 97%

Tomorrow, 8 July, Wednesday

Time Temperature Precipitation Wind Pressure Humidity
00:00 +13°C° 2 mm 4 mps 759 mmHg 97%
01:00 +14°C° 1.3 mm 4 mps 758 mmHg 97%
02:00 +14°C° 1.3 mm 4 mps 758 mmHg 97%
03:00 +15°C° 1.3 mm 5 mps 758 mmHg 97%
04:00 +15°C° 0.3 mm 4 mps 758 mmHg 96%
05:00 +15°C° 0.3 mm 4 mps 758 mmHg 96%
06:00 +15°C° 0.3 mm 4 mps 758 mmHg 96%
07:00 +16°C° 0.1 mm 3 mps 758 mmHg 94%
08:00 +16°C° 0.1 mm 3 mps 759 mmHg 93%
09:00 +16°C° 0.1 mm 3 mps 759 mmHg 92%
10:00 +17°C° 0.2 mm 2 mps 759 mmHg 89%
11:00 +17°C° 0.2 mm 2 mps 760 mmHg 87%
12:00 +18°C° 0.2 mm 2 mps 760 mmHg 84%
13:00 +18°C° 0.2 mm 2 mps 760 mmHg 85%
14:00 +18°C° 0.2 mm 2 mps 760 mmHg 85%
15:00 +18°C° 0.2 mm 2 mps 760 mmHg 85%
16:00 +17°C° 0.2 mm 2 mps 760 mmHg 87%
17:00 +17°C° 0.2 mm 2 mps 760 mmHg 89%
18:00 +17°C° 0.2 mm 2 mps 760 mmHg 91%
19:00 +16°C° 0.1 mm 3 mps 760 mmHg 92%
20:00 +14°C° 0.1 mm 3 mps 760 mmHg 94%
21:00 +14°C° 0.1 mm 3 mps 760 mmHg 95%
22:00 +14°C° 0.9 mm 3 mps 760 mmHg 96%
23:00 +14°C° 0.9 mm 3 mps 760 mmHg 97%

Day after tomorrow, 9 July, Thursday

Time Temperature Precipitation Wind Pressure Humidity
00:00 +14°C° 0.9 mm 3 mps 759 mmHg 98%
01:00 +15°C° 0.8 mm 4 mps 759 mmHg 97%
02:00 +15°C° 0.8 mm 4 mps 759 mmHg 96%
03:00 +15°C° 0.8 mm 4 mps 758 mmHg 96%
04:00 +15°C° 0.2 mm 5 mps 758 mmHg 95%
05:00 +15°C° 0.2 mm 5 mps 758 mmHg 94%
06:00 +15°C° 0.2 mm 5 mps 757 mmHg 93%
07:00 +16°C° 0.2 mm 5 mps 757 mmHg 93%
08:00 +16°C° 0.2 mm 5 mps 757 mmHg 93%
09:00 +16°C° 0.2 mm 5 mps 757 mmHg 93%
10:00 +17°C° 0 mm 5 mps 757 mmHg 90%
11:00 +19°C° 0 mm 6 mps 757 mmHg 88%
12:00 +20°C° 0 mm 6 mps 756 mmHg 85%
13:00 +20°C° 0.4 mm 6 mps 756 mmHg 85%
14:00 +20°C° 0.4 mm 7 mps 756 mmHg 86%
15:00 +20°C° 0.4 mm 7 mps 755 mmHg 86%
16:00 +20°C° 0.3 mm 6 mps 755 mmHg 88%
17:00 +19°C° 0.3 mm 6 mps 755 mmHg 90%
18:00 +17°C° 0.3 mm 6 mps 754 mmHg 92%
19:00 +16°C° 0.1 mm 5 mps 754 mmHg 92%
20:00 +16°C° 0.1 mm 5 mps 755 mmHg 93%
21:00 +16°C° 0.1 mm 5 mps 755 mmHg 94%
22:00 +15°C° 0.1 mm 5 mps 755 mmHg 94%
23:00 +14°C° 0.1 mm 5 mps 755 mmHg 94%

10 July, Friday

Time Temperature Precipitation Wind Pressure Humidity
00:00 +13°C° 0.1 mm 5 mps 755 mmHg 95%
01:00 +13°C° 0 mm 5 mps 756 mmHg 94%
02:00 +13°C° 0 mm 4 mps 756 mmHg 94%
03:00 +12°C° 0 mm 4 mps 756 mmHg 94%
04:00 +12°C° 0 mm 5 mps 757 mmHg 93%
05:00 +12°C° 0 mm 5 mps 757 mmHg 92%
06:00 +12°C° 0 mm 5 mps 758 mmHg 91%
07:00 +13°C° 0.1 mm 5 mps 758 mmHg 87%
08:00 +14°C° 0.1 mm 5 mps 759 mmHg 83%
09:00 +15°C° 0.1 mm 5 mps 759 mmHg 78%
10:00 +15°C° 0.5 mm 4 mps 760 mmHg 77%
11:00 +17°C° 0.5 mm 4 mps 761 mmHg 75%
12:00 +17°C° 0.5 mm 4 mps 761 mmHg 74%
13:00 +18°C° 0.5 mm 4 mps 762 mmHg 72%
14:00 +18°C° 0.5 mm 4 mps 762 mmHg 70%
15:00 +18°C° 0.5 mm 3 mps 762 mmHg 68%
16:00 +18°C° 0.2 mm 3 mps 763 mmHg 70%
17:00 +17°C° 0.2 mm 3 mps 763 mmHg 72%
18:00 +17°C° 0.2 mm 2 mps 763 mmHg 74%
19:00 +16°C° 0.1 mm 2 mps 764 mmHg 79%
20:00 +14°C° 0.1 mm 2 mps 764 mmHg 84%
21:00 +13°C° 0.1 mm 1 mps 765 mmHg 88%
22:00 +12°C° 0 mm 2 mps 765 mmHg 89%
23:00 +10°C° 0 mm 3 mps 765 mmHg 89%

11 July, Saturday

Time Temperature Precipitation Wind Pressure Humidity
00:00 +10°C° 0 mm 3 mps 765 mmHg 89%
01:00 +9°C° 0 mm 3 mps 765 mmHg 90%
02:00 +9°C° 0 mm 3 mps 766 mmHg 90%
03:00 +8°C° 0 mm 3 mps 766 mmHg 91%
04:00 +9°C° 0 mm 3 mps 766 mmHg 89%
05:00 +10°C° 0 mm 4 mps 766 mmHg 88%
06:00 +11°C° 0 mm 4 mps 766 mmHg 87%
07:00 +12°C° 0 mm 4 mps 767 mmHg 81%
08:00 +14°C° 0 mm 4 mps 767 mmHg 75%
09:00 +15°C° 0 mm 4 mps 767 mmHg 69%
10:00 +17°C° 0 mm 4 mps 767 mmHg 67%
11:00 +18°C° 0 mm 4 mps 767 mmHg 65%
12:00 +18°C° 0 mm 4 mps 767 mmHg 63%
13:00 +18°C° 0.1 mm 3 mps 767 mmHg 64%
14:00 +18°C° 0.1 mm 3 mps 767 mmHg 65%
15:00 +18°C° 0.1 mm 3 mps 767 mmHg 66%
16:00 +18°C° 0 mm 2 mps 767 mmHg 67%
17:00 +18°C° 0 mm 2 mps 767 mmHg 68%
18:00 +18°C° 0 mm 2 mps 767 mmHg 69%
19:00 +16°C° 0 mm 1 mps 768 mmHg 74%
20:00 +15°C° 0 mm 1 mps 768 mmHg 79%
21:00 +13°C° 0 mm 1 mps 768 mmHg 83%
22:00 +13°C° 0 mm 1 mps 768 mmHg 84%
23:00 +12°C° 0 mm 1 mps 768 mmHg 86%

12 July, Sunday

Time Temperature Precipitation Wind Pressure Humidity
00:00 +12°C° 0 mm 1 mps 768 mmHg 87%
01:00 +11°C° 0 mm 1 mps 768 mmHg 87%
02:00 +10°C° 0 mm 0 mps 768 mmHg 87%
03:00 +10°C° 0 mm 0 mps 768 mmHg 87%
04:00 +11°C° 0 mm 0 mps 768 mmHg 84%
05:00 +11°C° 0 mm 0 mps 768 mmHg 82%
06:00 +12°C° 0 mm 0 mps 769 mmHg 79%
07:00 +14°C° 0 mm 0 mps 769 mmHg 74%
08:00 +16°C° 0 mm 1 mps 769 mmHg 70%
09:00 +19°C° 0 mm 1 mps 769 mmHg 65%
10:00 +20°C° 0 mm 1 mps 769 mmHg 62%
11:00 +21°C° 0 mm 1 mps 769 mmHg 58%
12:00 +20°C° 0 mm 0 mps 769 mmHg 54%
13:00 +21°C° 0 mm 0 mps 769 mmHg 53%
14:00 +21°C° 0 mm 0 mps 768 mmHg 51%
15:00 +21°C° 0 mm 0 mps 768 mmHg 50%
16:00 +23°C° 0 mm 1 mps 768 mmHg 54%
17:00 +23°C° 0 mm 1 mps 768 mmHg 58%
18:00 +22°C° 0 mm 1 mps 768 mmHg 62%
19:00 +19°C° 0 mm 2 mps 768 mmHg 68%
20:00 +17°C° 0 mm 2 mps 768 mmHg 74%
21:00 +14°C° 0 mm 3 mps 768 mmHg 80%
22:00 +13°C° 0 mm 3 mps 768 mmHg 77%
23:00 +13°C° 0 mm 3 mps 768 mmHg 75%
Show more